Regional Weather Roundup
Issued by NWS Goodland, KS

Home | Current Version | Previous Version | Graphics & Text | Print | Product List | Glossary On
Versions: 1 2 3 4 5 6 7 8 9 10 11 12 13 14 15 16 17 18 19 20 21 22 23 24 25 26 27 28 29 30 31 32 33 34 35 36 37 38 39 40 41 42 43 44 45 46 47 48 49 50
000
ASUS43 KGLD 302308
RWRGLD

GOODLAND FORECAST AREA HOURLY WEATHER ROUNDUP
NATIONAL WEATHER SERVICE GOODLAND KS
500 PM MDT SUN AUG 30 2015

...OFFICIAL OBSERVATIONS...

CITY           SKY/WX    TMP DP  RH WIND       PRES   REMARKS
GOODLAND KS    SUNNY     89  40  17 S21       29.97F HAZE
HILL CITY KS   SUNNY     93  46  19 S9        29.94F HAZE
IMPERIAL NEB   SUNNY     93  38  14 S18G26    29.91F
MCCOOK NEB     SUNNY     94  37  13 S17       29.91F HAZE
AKRON CO       SUNNY     94  42  16 S13       29.95F
BURLINGTON CO  SUNNY     88  46  23 S17G26    29.99F
LIMON CO       SUNNY     89  42  19 S10       30.03F
$$

...UNOFFICIAL OBSERVATIONS...

CITY           SKY/WX    TMP DP  RH WIND       PRES   REMARKS
COLBY KS       SUNNY     91  43  18 S21       29.97F
GOVE KS          N/A     91  32  12 MISG        N/A
LENORA KS        N/A     91  32  12 MISG        N/A
NORTON KS      SUNNY     88  37  16 SE12      29.93S
SHARON SPRINGS   N/A     89  45  21 SE16G24     N/A
YUMA CO          N/A     92  50  23 SW10G20     N/A
$$


USA.gov is the U.S. government's official web portal to all federal, state and local government web resources and services.